Date,TemperatureHighF,TemperatureAvgF,TemperatureLowF,DewpointHighF,DewpointAvgF,DewpointLowF,HumidityHigh,HumidityAvg,HumidityLow,PressureMaxIn,PressureMinIn,WindSpeedMaxMPH,WindSpeedAvgMPH,GustSpeedMaxMPH,PrecipitationSumIn
2013-1-1,38.7,35.7,29.7,32.0,29.9,22.3,83,79,71,30.04,29.89,7,2,9,0.04
2013-1-2,31.5,26.8,21.9,22.5,18.5,16.5,81,71,60,30.24,29.99,14,2,14,0.00
2013-1-3,32.5,25.7,19.0,21.6,18.5,14.7,83,74,61,30.24,30.13,9,1,9,0.00
2013-1-4,36.1,32.2,29.5,25.0,23.1,21.2,73,69,63,30.16,30.04,15,4,15,0.00
2013-1-5,37.6,30.3,25.0,26.2,22.9,20.7,88,74,62,30.38,30.09,10,2,11,0.00
2013-1-6,45.0,36.2,27.0,34.0,29.4,25.5,96,77,56,30.23,30.02,10,1,11,0.01
2013-1-7,42.6,35.4,23.2,32.9,28.6,20.7,90,77,63,30.43,30.12,10,2,10,0.00
2013-1-8,44.1,32.1,22.5,35.1,27.7,20.1,93,84,69,30.43,30.38,10,1,10,0.00
2013-1-9,46.2,35.9,23.5,40.1,32.2,21.7,97,87,66,30.41,30.21,10,1,10,0.00
2013-1-10,46.0,39.7,34.0,33.8,30.3,27.7,82,69,58,30.57,30.33,12,2,12,0.00
2013-1-11,43.5,38.0,30.0,40.8,34.8,26.2,98,88,80,30.52,30.09,7,0,7,0.37
2013-1-12,53.4,43.6,38.7,50.7,42.6,37.8,99,96,88,30.17,30.09,4,0,4,0.01
2013-1-13,41.9,40.6,38.3,41.4,40.1,37.6,99,98,97,30.15,30.08,7,0,7,0.00
2013-1-14,48.0,45.1,39.4,47.5,40.1,36.1,100,83,70,30.30,30.11,8,2,8,0.12
2013-1-15,39.4,35.9,31.8,38.1,32.8,29.1,96,89,77,30.35,30.18,6,1,7,0.30
2013-1-16,36.3,33.0,31.5,36.0,32.3,30.2,99,97,94,30.18,29.83,9,1,9,0.73
2013-1-17,39.0,36.6,33.8,36.5,32.2,29.8,99,84,74,30.12,29.95,11,2,12,0.00
2013-1-18,34.3,28.3,21.6,30.2,19.6,12.4,85,70,50,30.49,30.01,18,2,18,0.00
2013-1-19,46.0,36.7,25.9,33.3,27.8,17.8,85,71,57,30.42,29.93,11,2,11,0.00
2013-1-20,52.5,40.0,27.5,35.4,26.7,16.0,75,60,39,30.07,29.77,22,5,22,0.00
2013-1-21,30.9,26.0,21.6,24.6,15.9,11.5,89,66,56,30.11,29.86,12,2,12,0.00
2013-1-22,21.9,15.8,10.6,17.2,3.1,-0.8,85,57,46,30.29,29.91,16,4,17,0.00
2013-1-23,18.1,12.2,8.1,4.1,2.0,-0.8,81,64,49,30.32,30.19,12,2,12,0.00
2013-1-24,23.7,16.9,8.8,10.2,6.0,2.1,82,63,42,30.49,30.14,17,2,17,0.00
2013-1-25,19.0,14.4,6.3,13.1,6.4,2.1,89,71,52,30.50,30.09,9,1,9,0.00
2013-1-26,25.2,17.7,6.4,16.7,12.5,3.7,91,80,67,30.44,30.09,13,1,14,0.02
2013-1-27,31.8,20.9,9.9,20.3,14.4,6.1,90,76,57,30.59,30.43,9,1,9,0.01
2013-1-28,34.7,29.7,19.0,34.2,28.1,15.8,98,94,86,30.53,30.06,7,1,8,0.04
2013-1-29,57.2,43.8,34.3,52.0,42.2,33.8,100,95,82,30.15,30.02,8,0,8,0.03
2013-1-30,64.6,52.1,39.9,61.0,51.2,38.8,100,97,87,30.02,29.26,17,2,17,1.02
2013-1-31,59.7,39.9,26.4,59.7,30.9,13.3,100,71,52,29.86,29.08,24,7,24,0.85
2013-2-1,28.2,24.3,18.0,20.7,12.5,7.5,81,61,49,30.32,29.83,22,4,22,0.00
2013-2-2,24.4,19.7,14.2,20.8,12.1,6.3,93,73,56,30.35,30.04,12,2,12,0.00
2013-2-3,29.3,24.6,19.2,25.2,21.3,16.0,94,87,72,30.04,29.83,16,1,16,0.06
2013-2-4,29.1,23.1,18.0,21.6,15.1,11.3,85,72,58,30.07,29.92,16,2,16,0.00
2013-2-5,31.6,29.0,25.5,28.8,26.2,21.6,95,89,84,29.96,29.88,5,0,5,0.01
2013-2-6,37.2,30.7,25.2,30.2,25.8,18.5,97,83,65,30.37,29.94,14,2,15,0.04
2013-2-7,33.3,27.4,19.8,23.4,19.1,15.6,91,72,49,30.48,30.26,8,1,8,0.00
2013-2-8,34.9,32.5,28.9,33.8,30.3,22.5,97,92,74,30.26,29.72,13,3,17,0.10
2013-2-9,31.8,26.3,21.4,27.5,18.7,12.7,94,73,63,30.40,29.82,24,6,24,0.01
2013-2-10,39.4,28.0,12.9,27.3,16.4,9.0,87,63,39,30.50,30.30,7,1,7,0.04
2013-2-11,45.5,36.5,30.7,45.3,35.0,26.4,99,94,81,30.30,29.71,9,2,10,0.28
2013-2-12,44.2,37.8,27.1,35.2,29.7,23.5,100,73,60,29.99,29.80,15,3,16,0.00
2013-2-13,42.4,32.7,23.2,31.5,27.5,20.8,96,82,63,29.98,29.68,9,1,9,0.01
2013-2-14,35.4,31.7,30.9,34.3,30.8,30.2,97,97,96,29.97,29.74,6,0,6,0.05
2013-3-13,46.8,40.8,31.6,34.9,26.5,19.0,79,57,40,30.01,29.87,13,-13,14,1.73
2013-3-14,40.6,33.8,28.0,19.8,16.9,14.2,69,51,35,30.05,29.97,20,6,20,0.00
2013-3-15,51.1,37.6,23.7,31.6,21.5,12.9,75,53,38,30.07,29.78,16,4,16,0.00
2013-3-16,43.2,35.9,31.6,31.8,29.4,25.0,93,78,58,29.96,29.74,11,3,11,0.08
2013-3-17,40.3,32.7,28.0,30.6,25.2,19.2,94,75,50,30.32,29.94,10,2,10,0.00
2013-3-18,35.8,31.7,27.9,31.8,23.2,13.6,94,72,48,30.38,29.91,14,4,14,0.27
2013-3-19,50.4,39.5,33.3,40.5,30.8,19.0,96,75,35,29.92,29.73,17,4,17,0.27
2013-3-20,46.2,37.4,29.7,23.5,19.0,14.7,69,48,30,29.96,29.80,16,4,18,0.00
2013-3-21,36.7,31.5,26.2,27.5,17.9,9.7,88,58,38,29.85,29.72,13,4,13,0.00
2013-3-22,40.8,31.8,25.5,26.6,19.5,13.5,81,61,45,29.99,29.83,14,5,17,0.00
2013-3-23,46.2,36.3,28.9,24.1,21.4,19.6,71,56,39,30.00,29.92,14,4,14,0.00
2013-3-24,44.4,35.4,23.7,26.6,21.3,18.7,83,59,36,30.02,29.70,10,2,10,0.00
2013-3-25,35.4,34.0,31.5,32.5,29.8,24.3,95,85,64,29.71,29.50,16,3,16,0.31
2013-3-26,49.5,39.1,32.2,36.5,31.7,25.9,95,77,41,29.95,29.68,13,3,13,0.08
2013-3-27,50.9,40.5,34.2,31.1,28.5,25.0,81,63,43,30.08,29.95,16,4,16,0.00
2013-3-28,48.0,40.1,34.2,32.4,28.2,26.1,78,63,49,30.20,30.04,12,4,13,0.00
2013-3-29,52.5,43.3,34.5,31.3,28.3,24.6,77,57,41,30.22,30.13,13,3,13,0.00
2013-3-30,57.0,42.6,29.7,32.0,26.4,22.6,86,57,28,30.23,30.13,10,2,12,0.00
2013-3-31,51.4,41.7,29.8,45.5,35.5,25.2,95,80,52,30.15,29.74,11,2,11,0.04
2013-4-1,61.2,45.2,33.3,44.1,33.5,14.5,97,67,39,29.98,29.71,20,4,20,0.00
2013-4-2,44.4,36.1,29.7,19.6,15.5,12.4,57,43,29,30.16,29.98,15,4,16,0.00
2013-4-3,46.9,35.2,22.8,19.9,15.6,10.9,76,46,26,30.36,30.16,15,4,15,0.00
2013-4-4,48.7,36.4,23.5,25.9,18.2,14.4,73,49,28,30.45,30.11,9,2,9,0.00
2013-4-5,62.1,48.1,36.0,34.3,26.8,16.3,91,50,21,30.11,29.81,14,3,15,0.00
2013-4-6,52.0,42.6,33.3,26.6,18.5,13.8,59,39,25,30.33,30.04,11,2,11,0.00
2013-4-7,60.3,49.0,37.0,43.3,34.4,25.0,77,58,43,30.31,30.01,18,4,18,0.00
2013-4-8,75.4,61.3,43.9,49.6,44.8,39.4,87,58,35,30.09,29.97,9,2,9,0.00
2013-4-9,82.4,68.8,50.5,54.0,50.3,45.5,85,55,30,30.05,29.91,16,3,16,0.00
2013-4-10,86.7,71.9,53.8,58.8,53.9,48.7,92,56,34,29.94,29.76,19,3,19,0.16
2013-4-11,77.0,61.6,49.8,62.1,55.1,44.8,98,81,57,29.91,29.81,21,3,21,0.00
2013-4-12,49.8,45.4,43.3,45.5,43.8,42.1,96,94,85,29.90,29.67,18,6,21,0.48
2013-4-13,59.7,49.0,37.8,43.0,38.2,33.8,97,70,41,29.99,29.79,12,2,13,0.00
2013-4-14,60.1,49.1,35.2,38.8,34.1,28.2,91,60,33,30.17,29.99,13,2,13,0.00
2013-4-15,60.4,51.2,45.3,45.0,39.7,31.3,79,65,53,30.34,30.16,11,2,11,0.00
2013-4-16,69.4,57.8,46.0,56.5,50.2,42.4,88,76,62,30.35,30.13,12,3,14,0.00
2013-4-17,69.3,59.6,52.3,56.1,50.0,43.3,94,73,42,30.28,30.11,9,2,11,0.00
2013-4-18,61.7,56.2,52.3,58.8,50.1,38.8,94,81,56,30.28,30.05,12,2,12,0.02
2013-4-19,73.4,63.3,51.6,64.2,59.3,49.1,96,88,71,30.06,29.61,15,4,15,0.98
2013-4-20,56.5,48.2,41.2,50.4,34.5,25.7,95,62,37,30.35,29.75,15,4,15,0.06
2013-4-21,53.2,43.4,34.0,34.3,25.2,19.8,84,50,33,30.63,30.35,11,2,12,0.00
2013-4-22,54.3,43.4,30.7,36.3,32.1,28.9,94,67,43,30.63,30.46,14,3,15,0.00
2013-4-23,55.2,47.2,41.2,42.8,38.8,33.4,87,73,60,30.46,30.15,10,3,10,0.00
2013-4-24,70.3,53.4,36.1,56.7,47.5,34.5,97,82,58,30.15,29.81,15,2,15,0.00
2013-4-25,60.3,50.0,40.6,51.4,33.6,28.2,78,55,32,30.31,29.94,19,4,19,0.01
2013-4-26,62.6,50.3,38.3,38.7,32.8,24.4,84,55,25,30.46,30.31,9,2,9,0.00
2013-4-27,67.8,52.0,35.2,38.8,33.3,28.9,86,54,26,30.46,30.31,7,1,7,0.00
2013-4-28,67.5,54.5,40.8,42.6,37.7,31.1,92,56,32,30.32,30.19,11,2,11,0.00
2013-4-29,55.0,52.9,49.3,54.0,50.4,39.0,97,92,60,30.21,30.11,9,1,12,0.53
2013-4-30,67.8,57.7,47.7,52.3,46.8,34.3,97,70,41,30.33,30.16,12,2,12,0.01
2013-5-1,69.8,55.0,39.6,42.4,36.0,28.9,86,54,23,30.47,30.32,12,2,13,0.00
2013-5-2,70.5,55.1,37.9,46.4,41.2,36.1,96,64,33,30.47,30.34,8,1,8,0.00
2013-5-3,66.2,53.7,42.1,43.3,39.4,34.5,94,62,34,30.42,30.34,12,2,12,0.00
2013-5-4,69.4,53.5,37.2,46.4,39.8,35.4,97,65,33,30.37,30.21,12,1,12,0.00
2013-5-5,65.1,52.1,41.0,43.0,39.4,36.7,88,64,39,30.28,30.18,9,2,9,0.00
2013-5-6,65.7,53.7,40.1,54.1,47.7,37.6,94,81,63,30.24,30.12,8,2,9,0.00
2013-5-7,69.6,59.5,52.0,60.1,55.1,49.8,96,86,66,30.14,30.03,12,3,12,0.27
2013-5-8,70.2,61.7,55.8,60.8,55.6,48.0,97,82,51,30.04,29.93,6,2,7,0.07
2013-5-9,68.4,59.7,52.9,58.1,55.0,51.8,97,85,66,29.99,29.92,6,1,7,0.03
2013-5-10,78.4,65.6,51.4,61.3,55.5,49.1,98,74,39,30.03,29.90,9,1,9,0.43
2013-5-11,72.0,63.9,60.3,65.3,61.3,58.6,97,92,71,29.94,29.73,7,1,8,0.49
2013-5-12,61.9,56.2,45.1,58.8,40.9,27.7,92,60,31,30.01,29.73,11,3,11,0.00
2013-5-13,53.8,46.9,39.4,34.9,30.9,25.0,78,55,36,30.17,29.99,8,2,8,0.00
2013-5-14,58.5,46.8,33.1,44.1,32.0,25.5,90,60,29,30.21,30.07,6,1,6,0.01
2013-5-15,68.7,57.2,46.8,59.2,51.3,42.6,95,81,62,30.11,29.73,9,1,10,0.05
2013-5-16,78.4,66.7,56.8,65.3,59.6,53.8,98,80,48,29.90,29.75,6,1,6,0.02
2013-5-17,74.5,64.2,54.7,55.8,46.3,37.2,83,55,28,30.19,29.90,6,1,6,0.00
2013-5-18,66.9,60.1,55.2,55.6,51.6,45.3,95,75,55,30.27,30.19,9,1,9,0.04
2013-5-19,62.4,59.5,57.0,61.3,58.6,55.6,98,97,95,30.27,30.15,8,1,8,0.06
2013-5-20,75.7,66.9,60.6,68.7,63.9,59.9,99,91,77,30.17,30.00,5,0,5,0.00
2013-5-21,78.4,70.8,62.8,70.3,66.9,61.2,98,88,73,30.01,29.89,7,1,7,0.00
2013-5-22,83.3,74.0,65.1,73.0,68.4,63.7,98,84,61,29.94,29.84,6,1,8,0.00
2013-5-23,75.7,69.5,62.4,68.2,65.5,61.0,96,88,73,29.91,29.77,7,1,7,0.18
2013-5-24,62.4,53.5,44.8,61.3,49.3,37.6,98,86,68,30.09,29.73,10,2,10,0.02
2013-5-25,59.7,52.3,43.7,40.6,36.3,32.5,85,57,37,30.12,30.04,13,3,13,0.00
2013-5-26,67.1,56.3,45.9,42.8,37.6,33.8,79,52,30,30.23,30.09,9,2,9,0.00
2013-5-27,69.3,56.5,39.9,48.4,40.9,34.3,91,60,32,30.29,30.18,5,1,5,0.00
2013-5-28,63.9,58.4,52.5,63.0,56.5,46.9,98,94,79,30.22,30.12,4,0,5,0.17
2013-5-29,85.3,72.9,60.3,70.2,63.9,59.7,99,77,45,30.13,30.06,6,1,6,0.00
2013-5-30,87.6,76.6,62.4,69.4,64.7,60.8,98,69,44,30.17,30.10,4,1,4,0.00
2013-5-31,86.2,76.4,64.6,70.9,65.0,58.5,96,70,40,30.15,30.03,8,0,8,0.00
2013-6-1,84.6,75.9,63.9,70.9,66.9,61.9,97,75,58,30.05,29.92,6,1,7,0.00
2013-6-2,81.7,75.9,68.7,72.1,67.3,64.4,89,75,60,29.93,29.81,6,1,6,0.00
2013-6-3,77.0,70.0,61.3,68.2,64.1,57.4,97,83,59,29.92,29.82,4,1,5,0.14
2013-6-4,70.7,62.9,54.5,57.9,48.3,43.0,88,61,39,30.13,29.92,6,1,6,0.00
2013-6-5,73.9,63.0,49.1,54.3,47.5,40.8,87,60,36,30.22,30.09,5,0,5,0.00
2013-6-6,69.1,61.9,55.2,61.9,56.2,51.4,97,82,57,30.14,29.94,8,1,8,0.38
2013-6-7,66.7,63.7,60.6,66.4,63.1,59.7,99,98,96,29.94,29.60,7,1,8,2.56
2013-6-8,72.1,65.6,60.4,64.8,61.8,58.1,98,88,70,30.11,29.66,4,1,5,0.00
2013-6-9,76.5,67.6,56.5,65.8,60.3,54.9,97,79,55,30.22,30.11,4,0,5,0.00
2013-6-10,72.0,68.5,64.6,71.4,67.3,61.9,99,96,81,30.16,29.79,6,1,7,1.64
2013-6-11,76.3,70.8,63.7,69.1,64.9,60.6,99,82,68,29.82,29.73,7,2,7,0.00
2013-6-12,78.6,71.6,63.1,66.6,62.5,59.5,91,74,56,29.86,29.81,5,1,5,0.00
2013-6-13,79.5,69.2,59.4,70.9,63.5,56.7,97,83,62,29.84,29.42,7,1,7,0.13
2013-6-14,73.6,63.8,55.2,59.4,54.8,51.8,94,75,50,29.96,29.56,8,2,8,0.02
2013-6-15,76.3,66.8,55.0,61.2,56.4,52.7,95,71,47,30.07,29.96,4,1,4,0.00
2013-6-16,77.7,66.7,55.4,67.3,60.1,52.2,92,81,56,30.04,29.86,6,1,7,0.01
2013-6-17,80.8,70.4,62.4,69.3,65.4,60.6,97,85,62,29.96,29.88,6,0,6,0.07
2013-6-18,75.0,65.8,61.0,71.2,64.3,60.1,98,95,82,29.94,29.81,7,0,7,0.43
2013-6-19,73.6,65.8,58.5,62.8,56.9,49.1,98,76,45,30.18,29.90,5,1,5,0.00
2013-6-20,75.6,65.7,53.2,62.2,56.6,51.6,96,74,50,30.29,30.18,7,0,7,0.00
2013-6-21,77.4,67.1,54.1,59.2,54.9,50.4,90,67,43,30.33,30.26,5,1,5,0.00
2013-6-22,80.2,68.9,55.2,67.8,62.0,52.9,98,80,62,30.28,30.14,4,0,4,0.00
2013-6-23,81.0,72.5,62.2,72.1,67.9,60.6,98,86,68,30.22,30.07,7,0,8,0.01
2013-6-24,86.4,74.0,65.7,73.6,69.2,64.4,98,86,59,30.12,30.01,7,1,8,0.13
2013-6-25,86.5,74.4,63.9,73.8,68.2,63.0,98,83,54,30.04,29.87,12,1,12,0.09
2013-6-26,84.4,74.2,65.5,72.5,67.8,63.5,97,82,61,29.91,29.79,8,1,8,0.07
2013-6-27,82.6,73.1,67.5,73.9,70.3,66.6,99,91,70,29.84,29.57,8,1,9,1.70
2013-6-28,80.8,71.6,65.7,71.8,68.2,64.6,98,90,65,29.60,29.50,4,1,6,0.28
2013-6-29,81.1,72.8,64.0,69.6,66.0,61.0,99,81,51,29.71,29.50,4,1,4,0.00
2013-6-30,80.4,73.8,68.2,74.7,70.5,65.5,98,90,78,29.89,29.71,7,0,8,0.12
2013-7-1,75.9,73.3,69.6,73.0,71.7,68.4,98,94,89,30.01,29.86,9,1,9,0.91
2013-7-2,79.3,74.3,72.0,74.1,71.8,70.2,98,92,80,30.19,30.01,7,1,7,0.20
2013-7-3,81.0,74.6,70.7,74.8,72.0,69.4,97,92,79,30.25,30.18,4,1,4,0.02
2013-7-4,82.8,77.2,72.0,75.2,72.6,70.9,98,86,75,30.27,30.18,6,1,7,0.01
2013-7-5,84.6,78.7,72.9,75.9,73.3,71.6,97,84,70,30.23,30.12,8,1,8,0.00
2013-7-6,87.4,80.0,71.2,76.5,73.2,69.8,97,81,59,30.18,30.06,4,1,4,0.00
2013-7-7,86.7,76.9,68.4,77.2,71.5,67.3,97,84,65,30.11,29.98,7,1,7,0.30
2013-7-8,81.7,72.9,66.7,72.5,68.3,63.9,98,86,64,30.09,30.03,5,1,5,0.01
2013-7-9,81.1,74.6,69.6,73.8,70.3,66.0,96,87,75,30.10,30.01,4,0,4,0.00
2013-7-10,82.4,76.5,71.8,75.9,73.1,70.2,97,89,78,30.03,29.84,5,1,6,0.04
2013-7-11,80.1,74.7,70.9,73.9,69.2,61.9,97,84,68,29.93,29.83,4,1,4,0.02
2013-7-12,72.5,69.4,66.4,68.7,64.8,60.4,98,86,70,30.04,29.92,8,2,11,1.40
2013-7-13,81.0,73.6,67.8,74.5,71.0,67.3,99,92,77,30.31,30.03,6,1,7,0.10
2013-7-14,84.7,77.7,71.1,75.6,72.6,69.8,98,85,66,30.36,30.27,3,0,3,0.00
2013-7-15,88.5,78.6,68.2,76.6,72.1,66.9,98,82,59,30.30,30.18,4,0,4,0.00
2013-7-16,89.1,80.3,72.5,75.9,71.4,68.5,95,76,53,30.24,30.16,5,1,5,0.00
2013-7-17,89.4,79.2,69.4,76.1,70.8,66.9,95,77,54,30.22,30.09,4,0,4,0.00
2013-7-18,90.7,81.8,71.8,79.9,75.0,70.0,94,81,62,30.11,29.99,0,0,0,0.00
2013-7-19,90.3,82.6,75.7,81.5,75.8,67.8,96,81,63,30.01,29.84,5,1,5,0.00
2013-7-20,85.6,79.1,72.5,75.6,71.4,67.5,90,78,64,29.88,29.78,6,1,6,0.00
2013-7-21,84.0,76.3,69.4,74.8,71.0,67.3,96,84,64,29.95,29.87,4,0,4,0.01
2013-7-22,84.2,76.4,70.0,75.7,71.4,68.5,97,85,67,29.95,29.77,5,0,6,0.49
2013-7-23,81.5,74.4,69.1,74.3,70.4,66.7,98,88,70,29.78,29.62,5,1,5,0.85
2013-7-24,75.7,71.0,64.2,68.4,64.5,53.1,95,81,63,29.96,29.67,5,1,6,0.00
2013-7-25,70.9,63.7,55.8,62.6,57.0,51.3,93,79,67,30.06,29.94,4,1,4,0.00
2013-7-26,77.2,68.3,59.5,64.2,60.4,57.4,96,78,54,30.09,30.04,3,0,3,0.00
2013-7-27,78.8,69.4,59.0,70.0,64.0,57.6,98,84,69,30.08,29.94,8,1,9,0.00
2013-7-28,79.0,71.7,66.2,72.7,67.4,62.8,94,87,67,29.99,29.89,6,0,6,0.00
2013-7-29,77.0,69.2,60.1,67.8,60.7,54.1,97,77,48,30.16,29.97,4,0,4,0.07
2013-7-30,76.5,66.4,56.7,64.9,58.8,55.0,95,78,54,30.23,30.16,4,0,4,0.00
2013-7-31,77.2,68.0,57.2,67.8,62.5,55.6,97,84,65,30.18,30.04,6,0,6,0.00
2013-8-1,73.9,69.0,65.8,70.7,67.1,63.5,98,94,85,30.04,29.83,7,0,7,0.61
2013-8-2,79.2,71.7,64.2,68.9,65.1,61.5,98,81,57,29.96,29.84,5,1,5,0.00
2013-8-3,74.3,67.4,63.1,67.3,63.9,61.0,96,89,74,29.97,29.91,4,1,4,0.02
2013-8-4,76.5,67.4,58.8,63.1,58.9,54.3,96,76,52,30.03,29.90,6,1,6,0.00
2013-8-5,73.8,64.3,55.2,60.4,55.0,49.5,94,74,44,30.12,30.03,5,0,5,0.00
2013-8-6,70.0,63.2,55.0,64.2,59.6,53.1,96,88,78,30.13,30.06,8,1,8,0.00
2013-8-7,73.4,68.4,63.9,70.3,66.7,62.8,97,94,89,30.13,30.05,7,1,7,0.07
2013-8-8,81.7,73.4,67.5,74.3,70.8,66.2,99,92,76,30.08,30.00,7,1,7,0.30
2013-8-9,81.9,76.2,71.2,75.9,73.1,70.7,98,90,76,30.02,29.84,7,1,7,0.02
2013-8-10,78.4,72.7,65.7,71.2,66.6,63.7,94,82,63,30.08,29.92,4,0,4,0.00
2013-8-11,79.5,70.6,61.2,69.1,64.0,59.0,96,81,61,30.15,30.03,5,0,6,0.00
2013-8-12,80.1,72.7,66.6,71.6,67.8,64.8,97,85,62,30.05,29.94,3,0,3,0.00
2013-8-13,76.6,69.9,65.7,70.3,67.4,63.3,98,92,77,29.94,29.74,3,0,4,3.13
2013-8-14,69.6,63.3,54.3,63.5,53.2,48.2,93,71,54,30.09,29.81,8,2,8,0.00
2013-8-15,72.0,61.8,50.7,59.7,53.2,48.7,97,76,47,30.20,30.09,4,0,4,0.00
2013-8-16,75.6,63.5,51.8,62.6,55.4,50.2,97,77,48,30.23,30.16,4,0,4,0.00
2013-8-17,78.1,66.0,54.3,64.0,57.9,52.9,98,77,48,30.29,30.23,5,0,5,0.00
2013-8-18,71.1,64.8,61.2,63.0,60.3,58.3,95,86,68,30.27,30.17,3,0,3,0.01
2013-8-19,71.2,65.1,58.6,66.6,61.8,57.0,96,89,77,30.19,30.09,3,0,3,0.00
2013-8-20,80.4,70.8,61.7,71.1,65.7,60.6,98,85,55,30.18,30.10,4,0,4,0.00
2013-8-21,84.0,71.2,60.6,72.7,66.2,59.4,98,86,53,30.22,30.08,6,0,6,0.00
2013-8-22,80.8,72.8,68.4,73.8,70.3,66.9,98,92,75,30.10,29.92,5,0,5,0.34
2013-8-23,73.0,67.5,61.3,67.6,64.6,59.5,98,90,70,30.13,29.94,5,0,5,0.00
2013-8-24,76.5,66.6,56.5,62.2,56.8,53.8,94,72,49,30.37,30.13,5,1,5,0.00
2013-8-25,75.9,64.4,53.1,64.0,57.4,52.0,99,80,53,30.44,30.28,4,0,4,0.00
2013-8-26,81.0,70.4,59.4,67.8,62.5,55.8,91,77,59,30.29,29.97,5,1,5,0.00
2013-8-27,82.9,74.1,65.8,72.1,68.0,63.9,96,82,62,29.97,29.89,3,0,5,0.00
2013-8-28,75.7,70.3,67.5,74.1,69.2,66.2,98,96,92,29.92,29.84,3,0,3,0.28
2013-8-29,78.8,71.8,68.4,71.2,68.9,66.7,98,91,72,30.04,29.88,5,1,5,0.00
2013-8-30,79.3,71.8,65.7,73.6,68.9,64.8,98,91,78,30.05,29.89,4,0,5,0.31
2013-8-31,82.2,75.2,68.7,75.2,71.6,67.5,97,89,75,29.91,29.81,9,1,9,0.01
2013-9-1,82.9,76.5,71.4,75.2,72.6,70.2,98,88,72,29.86,29.78,6,0,6,0.00
2013-9-2,82.6,74.9,65.1,74.5,71.3,63.1,98,89,70,29.82,29.73,11,0,12,0.38
2013-9-3,79.2,70.5,61.3,68.9,63.0,56.1,99,79,53,29.95,29.73,5,1,5,0.00
2013-9-4,75.9,66.1,57.9,63.3,57.9,55.0,93,77,50,30.07,29.94,5,1,5,0.00
2013-9-5,75.9,64.9,54.7,64.0,56.6,49.6,95,77,44,30.17,30.00,6,1,6,0.00
2013-9-6,67.6,58.3,48.6,53.1,46.4,37.9,92,67,35,30.28,30.17,4,1,4,0.00
2013-9-7,74.1,60.2,45.9,61.0,52.0,44.2,97,77,44,30.17,29.95,4,0,4,0.00
2013-9-8,79.7,68.6,58.6,66.6,60.5,48.7,95,77,59,30.09,29.89,5,1,6,0.00
2013-9-9,71.1,61.9,49.6,63.5,55.3,45.9,92,79,66,30.24,30.09,8,1,8,0.00
2013-9-10,82.9,74.3,66.0,75.2,70.2,63.3,96,87,75,30.20,30.09,5,1,5,0.00
2013-9-11,87.1,78.2,69.4,77.7,72.7,67.8,99,84,63,30.16,30.01,5,0,6,0.00
2013-9-12,81.5,73.1,67.1,74.8,70.1,66.0,98,91,74,30.01,29.74,8,0,8,0.38
2013-9-13,71.2,65.5,57.6,66.9,58.4,49.8,98,80,53,29.92,29.68,7,1,7,0.01
2013-9-14,60.8,54.4,45.9,50.7,48.0,44.1,94,80,64,30.19,29.92,5,1,5,0.00
2013-9-15,68.2,55.4,42.6,57.4,49.7,41.4,98,83,57,30.26,30.12,5,0,5,0.00
2013-9-16,66.6,59.5,55.6,58.6,55.2,49.8,97,87,66,30.27,30.06,5,1,6,0.07
2013-9-17,61.0,52.4,43.9,49.8,44.2,40.6,94,75,53,30.45,30.27,7,1,7,0.00
2013-9-18,65.5,52.7,41.4,52.5,45.5,40.1,98,79,48,30.38,30.23,5,0,5,0.00
2013-9-19,70.9,57.2,44.8,59.5,51.2,43.7,98,82,56,30.23,30.11,5,0,5,0.00
2013-9-20,73.4,61.8,50.7,62.6,55.8,49.6,98,82,57,30.12,30.00,9,0,9,0.00
2013-9-21,72.5,61.8,50.9,64.0,58.3,49.5,98,89,68,30.03,29.72,8,1,9,0.54
2013-9-22,67.5,59.8,52.3,60.4,53.2,45.1,98,80,57,29.96,29.70,6,1,7,0.05
2013-9-23,61.5,53.7,45.7,51.1,45.3,41.7,93,74,57,30.09,29.96,0,0,0,0.00
2013-9-24,67.3,53.1,42.3,53.8,46.5,40.5,95,80,52,30.12,29.96,0,0,0,0.00
2013-9-25,68.4,54.7,43.2,55.9,47.4,41.4,95,79,44,30.00,29.91,0,0,0,0.00
2013-9-26,69.3,57.5,46.6,58.5,52.2,45.1,98,84,58,30.11,29.96,0,0,0,0.00
2013-9-27,67.5,59.8,52.9,58.5,54.5,50.5,97,84,60,30.28,30.11,0,0,0,0.00
2013-9-28,68.9,58.8,50.7,57.7,52.7,48.9,97,82,55,30.34,30.25,0,0,0,0.00
2013-9-29,68.4,56.5,46.8,59.0,51.3,45.3,98,84,61,30.25,30.10,7,0,7,0.00
2013-9-30,69.6,56.4,46.0,57.4,51.4,44.8,98,85,56,30.12,30.01,4,0,4,0.00
2013-10-1,75.6,62.0,50.4,62.1,56.1,49.3,98,83,56,30.08,29.97,4,1,4,0.00
2013-10-2,79.2,65.5,53.8,65.5,59.3,52.5,98,82,57,30.07,29.99,5,1,5,0.00
2013-10-3,78.4,66.7,56.3,67.3,61.0,54.9,98,83,60,30.14,30.06,5,0,5,0.00
2013-10-4,80.4,68.2,58.6,68.5,63.0,57.4,99,85,61,30.10,30.01,5,0,5,0.00
2013-10-5,81.9,72.2,63.1,69.6,66.1,61.7,97,82,58,30.10,30.02,3,0,5,0.00
2013-10-6,79.0,69.8,64.9,70.7,66.5,64.0,98,90,74,30.06,29.96,8,1,8,0.00
2013-10-7,72.1,63.8,53.2,69.8,61.8,48.4,98,93,83,30.04,29.78,11,2,15,0.37
2013-10-8,62.4,53.9,46.0,50.7,47.2,43.7,96,80,52,30.33,30.04,8,1,8,0.00
2013-10-9,58.1,53.4,48.0,49.6,47.0,43.3,96,79,70,30.38,30.26,7,2,8,0.00
2013-10-10,55.8,53.7,50.4,54.9,51.6,47.8,97,93,77,30.26,30.01,10,4,10,1.03
2013-10-11,60.6,58.1,55.6,59.9,57.5,54.7,98,98,95,30.07,29.97,9,4,9,3.02
2013-10-12,68.2,62.5,58.6,59.2,53.8,46.6,95,74,53,30.22,30.04,12,4,12,0.00
2013-10-13,64.6,58.6,51.4,55.6,51.7,48.2,91,78,63,30.37,30.22,10,3,10,0.00
2013-10-14,64.6,54.9,48.4,53.8,50.1,46.8,96,85,62,30.37,30.25,4,0,4,0.00
2013-10-15,67.8,55.1,45.5,54.7,49.0,44.4,98,82,48,30.28,30.13,5,0,5,0.00
2013-10-16,65.1,57.8,49.5,58.8,54.3,47.3,96,88,77,30.13,29.94,5,0,5,0.00
2013-10-17,68.5,62.5,57.7,63.1,60.2,56.7,98,92,79,29.95,29.73,7,1,7,0.04
2013-10-18,60.6,54.3,43.3,57.9,46.3,41.5,94,76,54,30.03,29.78,7,2,7,0.00
2013-10-19,61.2,50.8,41.2,53.4,46.7,39.9,97,87,62,30.03,29.80,9,1,9,0.05
2013-10-20,57.7,49.1,40.6,49.5,40.9,37.4,93,75,49,30.11,29.84,7,2,8,0.00
2013-10-21,62.4,49.6,37.2,46.4,41.0,35.6,97,75,42,30.18,29.99,9,1,9,0.00
2013-10-22,57.9,49.6,41.7,51.3,44.2,33.4,98,82,59,29.99,29.82,5,1,5,0.00
2013-10-23,52.9,45.8,41.0,38.7,36.1,33.3,85,70,49,29.86,29.67,7,1,7,0.00
2013-10-24,47.7,41.5,36.1,36.5,32.5,28.9,87,71,51,30.11,29.85,9,2,9,0.00
2013-10-25,50.2,41.6,34.9,36.7,33.1,29.7,84,72,58,30.30,30.10,8,2,8,0.00
2013-10-26,51.8,42.4,29.8,36.3,31.7,27.7,94,68,45,30.30,29.94,8,2,8,0.00
2013-10-27,53.6,46.0,36.1,36.9,33.7,31.3,84,63,48,30.18,29.94,7,2,7,0.00
2013-10-28,57.6,43.1,30.9,41.4,34.9,29.1,94,75,48,30.33,30.17,4,0,4,0.00
2013-10-29,57.4,46.1,38.1,43.2,38.4,34.5,91,76,53,30.42,30.33,7,1,7,0.00
2013-10-30,55.4,48.8,40.5,52.9,47.3,38.5,97,94,91,30.37,30.20,3,0,3,0.00
2013-10-31,64.8,57.8,51.3,59.7,55.3,50.4,99,92,78,30.24,29.81,8,1,9,0.01
2013-11-1,68.2,61.8,52.0,63.1,57.2,50.4,97,85,60,29.81,29.58,12,2,12,0.18
2013-11-2,64.6,54.3,45.9,53.8,46.3,40.3,97,76,55,29.85,29.65,7,1,7,0.00
2013-11-3,50.7,44.5,33.3,42.6,32.2,21.6,86,63,40,30.49,29.85,13,2,13,0.00
2013-11-4,44.1,35.6,29.7,29.1,22.2,16.3,83,60,35,30.68,30.49,11,1,11,0.00
2013-11-5,55.8,44.2,32.7,42.8,36.8,27.5,93,76,61,30.66,30.50,6,1,6,0.00
2013-11-6,62.1,53.2,44.6,50.7,47.5,42.3,92,82,66,30.51,30.08,9,2,9,0.00
2013-11-7,57.0,52.0,40.6,55.0,48.0,28.0,95,86,61,30.08,29.85,12,3,12,0.09
2013-11-8,48.4,39.7,30.2,34.3,29.1,26.1,86,66,51,30.31,30.03,13,3,13,0.00
2013-11-9,48.7,38.4,27.5,34.0,29.4,24.8,92,72,47,30.36,30.03,5,1,7,0.00
2013-11-10,57.2,45.4,32.0,37.4,32.3,28.9,90,62,44,30.18,29.94,16,4,16,0.00
2013-11-11,52.5,45.3,36.1,38.3,33.2,28.4,74,63,47,30.27,30.01,10,3,10,0.00
2013-11-12,48.9,36.9,26.8,36.9,23.7,14.2,78,59,47,30.37,29.98,14,3,14,0.00
2013-11-13,39.6,31.5,26.2,22.5,18.2,13.5,75,58,43,30.47,30.36,16,3,16,0.00
2013-11-14,53.4,39.3,27.7,31.6,20.0,11.7,80,50,20,30.36,30.24,12,3,12,0.00
2013-11-15,56.8,40.3,28.9,35.2,29.2,25.0,90,68,31,30.29,30.20,5,1,5,0.00
2013-11-16,56.1,47.6,40.8,47.1,43.4,34.3,97,86,69,30.36,30.27,7,1,7,0.07
2013-11-17,62.1,54.6,48.2,58.3,52.3,46.8,98,92,80,30.28,29.75,10,2,10,0.00
2013-11-18,62.8,57.0,45.1,59.4,38.8,25.5,96,54,30,29.90,29.68,20,5,20,0.07
2013-11-19,46.6,40.7,31.1,28.9,26.1,21.7,69,56,47,30.39,29.90,15,4,15,0.00
2013-11-20,45.1,33.5,26.1,23.7,19.4,13.3,81,59,29,30.61,30.38,10,1,10,0.00
2013-11-21,49.3,39.0,25.3,41.7,30.1,15.4,84,70,60,30.63,30.42,7,1,7,0.00
2013-11-22,53.4,49.1,46.2,50.0,46.1,41.9,96,90,84,30.42,29.99,8,1,8,0.02
2013-11-23,50.2,39.2,27.7,46.4,27.9,11.5,90,64,49,30.15,30.01,16,6,16,0.00
2013-11-24,29.1,24.3,20.8,13.5,5.5,0.9,67,45,31,30.49,30.15,18,6,20,0.00
2013-11-25,32.2,25.4,18.1,18.5,13.3,10.4,75,60,43,30.57,30.37,8,2,8,0.00
2013-11-26,47.1,33.5,30.4,46.4,26.2,13.8,98,77,49,30.37,29.65,13,2,13,0.92
2013-11-27,55.6,37.0,28.0,55.2,34.3,18.7,99,90,68,29.93,29.47,16,5,16,0.82
2013-11-28,34.2,28.7,25.3,23.7,19.9,17.4,85,70,54,30.51,29.93,20,4,20,0.00
2013-11-29,38.1,28.2,18.9,25.7,20.5,16.3,91,74,55,30.77,30.50,14,1,14,0.01
2013-11-30,36.9,27.5,18.7,26.8,21.2,14.4,91,77,65,30.77,30.41,9,1,9,0.00
2013-12-1,43.9,31.9,21.9,31.8,26.9,20.1,97,83,60,30.41,30.06,5,0,5,0.00
2013-12-2,47.5,38.4,32.5,35.8,32.9,29.5,92,81,57,30.06,29.91,3,0,3,0.00
2013-12-3,52.5,39.8,30.9,38.1,33.8,28.9,94,80,55,30.04,29.91,6,0,6,0.00
2013-12-4,51.6,43.2,31.5,46.2,38.7,30.0,95,85,70,30.13,30.02,5,0,5,0.00
2013-12-5,57.4,51.7,47.7,57.0,51.0,46.0,99,98,93,30.12,29.94,5,1,6,0.00
2013-12-6,60.3,46.6,34.5,59.9,45.4,33.3,99,96,92,30.19,29.89,9,2,9,0.85
2013-12-7,37.9,33.1,28.0,33.6,29.3,23.5,96,86,70,30.56,30.11,11,3,11,0.08
2013-12-8,28.0,25.8,24.3,26.6,21.9,17.6,96,85,69,30.62,30.34,10,2,10,0.00
2013-12-9,33.8,31.9,27.3,33.3,31.2,26.1,98,97,95,30.34,30.04,9,2,10,0.17
2013-12-10,31.6,29.0,19.2,31.1,26.9,14.7,98,92,74,30.22,29.98,8,2,8,0.00
2013-12-11,31.3,20.7,9.1,19.6,14.6,7.0,94,78,58,30.41,30.21,9,2,9,0.00
2013-12-12,25.5,19.9,12.6,18.9,11.3,4.8,93,69,53,30.42,30.23,11,2,11,0.00
2013-12-13,33.6,25.4,18.1,19.8,14.3,6.4,88,63,52,30.37,30.21,12,3,12,0.01
2013-12-14,30.9,28.2,23.2,29.7,24.8,19.2,96,87,75,30.42,29.75,14,3,14,0.00
2013-12-15,36.5,31.6,27.9,34.3,28.2,21.0,96,88,71,29.92,29.61,14,3,14,0.00
2013-12-16,30.7,23.6,16.7,23.4,14.6,10.4,84,68,53,30.25,29.91,15,3,15,0.00
2013-12-17,29.7,24.3,19.4,26.2,20.7,15.4,94,86,71,30.23,29.98,7,1,7,0.00
2013-12-18,34.9,26.9,19.0,24.3,20.8,15.8,94,79,56,30.24,30.01,13,3,13,0.01
2013-12-19,45.3,31.5,16.3,32.2,24.6,14.2,95,77,52,30.24,30.10,8,1,8,0.29
2013-12-20,48.9,41.1,32.5,39.4,32.7,29.3,90,73,54,30.14,30.01,7,1,7,0.24
2013-12-21,61.2,50.7,38.8,55.8,46.4,35.4,95,85,75,30.04,29.92,10,1,10,0.00
2013-12-22,63.7,60.5,57.2,61.7,58.3,55.0,97,92,88,30.00,29.81,13,4,14,0.11
2013-12-23,58.3,50.8,35.6,57.2,48.2,28.9,98,91,77,30.21,29.93,14,3,14,0.52
2013-12-24,36.3,30.9,21.9,29.1,23.0,13.5,89,73,61,30.44,30.18,13,4,13,0.00
2013-12-25,28.2,23.4,18.1,16.7,13.0,9.0,77,64,52,30.58,30.43,8,2,8,0.00
2013-12-26,36.9,26.5,19.2,30.0,22.2,16.3,93,84,66,30.43,30.23,12,1,12,0.02
2013-12-27,44.2,29.0,19.6,26.2,21.2,17.2,93,75,38,30.43,30.32,11,1,11,0.00
2013-12-28,55.0,38.5,23.5,30.9,26.1,20.3,88,64,35,30.34,30.13,10,2,10,0.00
2013-12-29,42.8,39.8,37.0,42.1,36.1,28.6,97,87,64,30.13,29.50,12,2,12,0.93
2013-12-30,41.2,34.7,25.2,38.5,28.9,16.2,97,79,66,30.20,29.78,12,3,12,0.00
2013-12-31,34.9,27.2,21.6,26.4,18.0,14.4,77,68,54,30.35,30.10,14,3,15,0.00
2014-1-1,37.6,27.6,17.1,27.3,21.5,14.0,91,78,62,30.44,30.21,8,1,8,0.00
2014-1-2,30.4,26.7,18.3,27.0,23.2,16.2,93,87,76,30.21,29.66,13,4,13,0.01